Miscellaneous Local Product
Issued by NWS Hastings, NE

Home | Current Version | Previous Version | Graphics & Text | Print | Product List | Glossary On
Versions: 1 2 3 4 5 6 7 8 9 10 11 12 13 14 15 16 17 18 19 20 21 22 23 24 25 26 27 28 29 30 31 32 33 34 35 36 37 38 39 40 41 42 43 44 45 46 47 48 49 50
000
AXUS43 KGID 251002
MISGRI

GID CWA HOURLY WEATHER ROUNDUP
NATIONAL WEATHER SERVICE HASTINGS NE
500 AM CDT SAT OCT 25 2014

NOTE: "FAIR" INDICATES FEW OR NO CLOUDS BELOW 12,000 FEET WITH NO
SIGNIFICANT WEATHER AND/OR OBSTRUCTIONS TO VISIBILITY.

...SOUTH CENTRAL NEBRASKA...

CITY           SKY/WX    TMP DP  RH WIND       PRES   REMARKS
GRAND ISLAND   CLEAR     45  41  86 N5        30.06R
HASTINGS       CLEAR     47  43  86 CALM      30.06R
KEARNEY        CLEAR     45  39  81 W8        30.07S
ORD            CLEAR     38  36  92 NW6       30.09R WCI  33
YORK           CLEAR     45  45 100 N5        30.06S
AURORA         CLEAR     47  43  87 N6        30.06R
LEXINGTON      CLEAR     40  38  91 W5        30.07S
HOLDREGE       CLEAR     42  39  90 CALM      30.06R
HEBRON         CLEAR     47  45  92 CALM      30.05R

...NEBRASKA PANHANDLE...

CITY           SKY/WX    TMP DP  RH WIND       PRES   REMARKS
CHADRON        CLEAR     33  31  92 SW7       30.17S WCI  27
ALLIANCE       CLEAR     31  28  89 NW3       30.15S
SCOTTSBLUFF    CLEAR     40  32  73 CALM      30.14S
SIDNEY         CLEAR     41  30  65 W10       30.15S

...WESTERN AND NORTH CENTRAL NEBRASKA...

CITY           SKY/WX    TMP DP  RH WIND       PRES   REMARKS
VALENTINE      CLEAR     48  34  58 NE8       30.13S
AINSWORTH      CLEAR     43  34  69 NE5       30.12S
ONEILL         CLEAR     51  40  66 N8        30.11S
BROKEN BOW     CLEAR     43  39  86 N5        30.08R
IMPERIAL       CLEAR     46  34  62 W5        30.09S
NORTH PLATTE   CLEAR     37  34  89 CALM      30.08S
MCCOOK         CLEAR     42  35  76 W7        30.07S

...EASTERN NEBRASKA...

CITY           SKY/WX    TMP DP  RH WIND       PRES   REMARKS
NORFOLK        CLEAR     42  40  92 NW5       30.07S
SO SIOUX CITY  CLEAR     45  42  89 NW6       30.06R
TEKAMAH        CLEAR     46  43  89 NW5       30.04S
COLUMBUS       CLEAR     45  37  76 CALM      30.08R
ALBION         CLEAR     45  40  81 NW9       30.08S
OMAHA EPPLEY   CLEAR     47  45  93 N8        30.04R
OFFUTT AFB     CLEAR     46  46 100 W2        30.02R FOG
MILLARD        CLEAR     48  47  95 CALM      30.03R
LINCOLN        CLEAR     44  42  93 N6        30.05S
NEBRASKA CITY  CLEAR     53  46  76 CALM      30.03R
BEATRICE       CLEAR     45  44  97 CALM      30.05R
FALLS CITY     FOG       49  48  97 NW6       30.02S VSB 1/4

...NORTHERN KANSAS...

CITY           SKY/WX    TMP DP  RH WIND       PRES   REMARKS
GOODLAND       CLEAR     47  34  60 W7        30.12S
HILL CITY      CLEAR     46  40  79 W6        30.05F
NORTON         SUNNY     41  32  70 NW5       30.05S
PHILLIPSBURG   CLEAR     46  46 100 W7        30.04S
SMITH CENTER   CLEAR     52  46  82 NE6       30.04S HAZE
BELOIT         CLEAR     48  48 100 CALM      30.02S
HAYS           CLEAR     48  43  81 CALM      30.05S
RUSSELL        CLEAR     54  51  90 CALM      30.03S
CONCORDIA      CLEAR     52  50  93 E3        30.03S
SALINA         CLEAR     55  54  96 SW8       30.03S FOG
TOPEKA         FOG       54  54 100 CALM      30.02S VSB 1/4



USA.gov is the U.S. government's official web portal to all federal, state and local government web resources and services.